This is the latest recevied weather packets stored in our database for station/object SQ5LTL-2. If no packets are shown the sender has not sent any weather packets the latest 10 day(s).
| Time | Temp. | Humidity | Pressure | Rain* | Wind** | Luminosity | Snow |
|---|---|---|---|---|---|---|---|
| 1778060117 | 25° C | 36% | 1006.7 hPa | 0 mm | - | 577 W/m² | - |
| 1778059816 | 23.89° C | 38% | 1006.8 hPa | 0 mm | - | 477 W/m² | - |
| 1778059535 | 23.89° C | 38% | 1006.8 hPa | 0 mm | - | 414 W/m² | - |
| 1778059233 | 24.44° C | 38% | 1006.8 hPa | 0 mm | - | 454 W/m² | - |
| 1778058932 | 23.89° C | 38% | 1006.8 hPa | 0 mm | - | 521 W/m² | - |
| 1778058630 | 23.89° C | 38% | 1006.6 hPa | 0 mm | - | 436 W/m² | - |
| 1778058329 | 23.89° C | 39% | 1006.7 hPa | 0 mm | - | 383 W/m² | - |
| 1778058027 | 23.33° C | 39% | 1006.8 hPa | 0 mm | - | 413 W/m² | - |
| 1778057726 | 23.89° C | 39% | 1006.7 hPa | 0 mm | - | 375 W/m² | - |
| 1778057424 | 23.89° C | 38% | 1006.6 hPa | 0 mm | - | 468 W/m² | - |
| 1778057123 | 23.33° C | 39% | 1006.6 hPa | 0 mm | - | 528 W/m² | - |
| 1778056821 | 23.33° C | 39% | 1006.6 hPa | 0 mm | - | 491 W/m² | - |
| 1778056520 | 23.33° C | 40% | 1006.6 hPa | 0 mm | - | 508 W/m² | - |
| 1778056219 | 23.33° C | 40% | 1006.8 hPa | 0 mm | - | 506 W/m² | - |
| 1778055917 | 22.78° C | 40% | 1006.8 hPa | 0 mm | - | 496 W/m² | - |
| 1778055615 | 22.78° C | 40% | 1006.8 hPa | 0 mm | - | 461 W/m² | - |
| 1778055335 | 22.22° C | 41% | 1006.8 hPa | 0 mm | - | 467 W/m² | - |
| 1778055032 | 22.22° C | 41% | 1006.9 hPa | 0 mm | - | 443 W/m² | - |
| 1778054731 | 22.22° C | 40% | 1006.9 hPa | 0 mm | - | 451 W/m² | - |
| 1778054430 | 22.22° C | 40% | 1006.8 hPa | 0 mm | - | 446 W/m² | - |
| 1778054128 | 22.22° C | 40% | 1006.8 hPa | 0 mm | - | 435 W/m² | - |
| 1778053827 | 22.22° C | 41% | 1006.8 hPa | 0 mm | - | 418 W/m² | - |
| 1778053526 | 22.22° C | 41% | 1006.7 hPa | 0 mm | - | 419 W/m² | - |
| 1778053224 | 21.67° C | 41% | 1006.8 hPa | 0 mm | - | 407 W/m² | - |
| 1778052922 | 21.67° C | 41% | 1007.1 hPa | 0 mm | - | 410 W/m² | - |
* Rain latest hour (hover to see other rain measurements)
** Current wind speed in m/s (hover to see current wind gust speed)